When you browse on this site, cookies collect data to enhance your experience and personalize the content and advertising you see.
Visit our Privacy Policy to learn more. By continuing to use the site, you agree to this use of cookies and data.
  • In United Kingdom
  • List of Countries
  • For 7 days
  • Water Temperature
  • Satellite Maps
  • Weather Map
  • Weather Widgets
  • user-avatar
    Login

    Hourly Weather Knighton

    Today, 24 January, Thursday

    Time Temperature Precipitation Wind Pressure Humidity
    00:00 -1°C° 0 mm 2 mps 726 mmHg 92%
    01:00 -1°C° 0 mm 2 mps 726 mmHg 93%
    02:00 -1°C° 0 mm 2 mps 726 mmHg 94%
    03:00 -1°C° 0 mm 2 mps 726 mmHg 94%
    04:00 +1°C° 0 mm 2 mps 726 mmHg 95%
    05:00 0°C° 0 mm 3 mps 727 mmHg 96%
    06:00 0°C° 0 mm 3 mps 727 mmHg 96%
    07:00 +1°C° 0 mm 3 mps 727 mmHg 96%
    08:00 +1°C° 0 mm 3 mps 727 mmHg 96%
    09:00 +2°C° 0 mm 3 mps 727 mmHg 96%
    10:00 +2°C° 0.1 mm 3 mps 727 mmHg 95%
    11:00 +3°C° 0.1 mm 3 mps 728 mmHg 94%
    12:00 +4°C° 0.1 mm 3 mps 728 mmHg 93%
    13:00 +4°C° 0.1 mm 3 mps 728 mmHg 94%
    14:00 +5°C° 0.1 mm 2 mps 728 mmHg 95%
    15:00 +5°C° 0.1 mm 2 mps 728 mmHg 96%
    16:00 +4°C° 0 mm 2 mps 728 mmHg 96%
    17:00 +5°C° 0 mm 1 mps 728 mmHg 96%
    18:00 +4°C° 0 mm 1 mps 728 mmHg 96%
    19:00 +4°C° 0 mm 1 mps 729 mmHg 96%
    20:00 +4°C° 0 mm 1 mps 729 mmHg 96%
    21:00 +3°C° 0 mm 0 mps 730 mmHg 96%
    22:00 +4°C° 0 mm 1 mps 730 mmHg 97%
    23:00 +5°C° 0 mm 1 mps 730 mmHg 97%

    Tomorrow, 25 January, Friday

    Time Temperature Precipitation Wind Pressure Humidity
    00:00 +5°C° 0 mm 1 mps 730 mmHg 97%
    01:00 +5°C° 0 mm 2 mps 730 mmHg 97%
    02:00 +5°C° 0 mm 3 mps 730 mmHg 96%
    03:00 +5°C° 0 mm 4 mps 730 mmHg 96%
    04:00 +5°C° 0 mm 4 mps 730 mmHg 96%
    05:00 +5°C° 0 mm 4 mps 730 mmHg 95%
    06:00 +5°C° 0 mm 4 mps 730 mmHg 95%
    07:00 +5°C° 0 mm 5 mps 730 mmHg 95%
    08:00 +5°C° 0 mm 5 mps 731 mmHg 94%
    09:00 +5°C° 0 mm 5 mps 731 mmHg 94%
    10:00 +6°C° 0 mm 5 mps 731 mmHg 93%
    11:00 +6°C° 0 mm 5 mps 731 mmHg 92%
    12:00 +7°C° 0 mm 6 mps 732 mmHg 91%
    13:00 +7°C° 0 mm 6 mps 732 mmHg 91%
    14:00 +7°C° 0 mm 6 mps 732 mmHg 90%
    15:00 +7°C° 0 mm 6 mps 732 mmHg 89%
    16:00 +7°C° 0 mm 5 mps 732 mmHg 91%
    17:00 +7°C° 0 mm 5 mps 732 mmHg 92%
    18:00 +6°C° 0 mm 5 mps 732 mmHg 93%
    19:00 +6°C° 0 mm 5 mps 732 mmHg 93%
    20:00 +5°C° 0 mm 6 mps 732 mmHg 92%
    21:00 +5°C° 0 mm 6 mps 732 mmHg 92%
    22:00 +4°C° 0 mm 6 mps 732 mmHg 93%
    23:00 +4°C° 0 mm 6 mps 732 mmHg 93%

    Day after tomorrow, 26 January, Saturday

    Time Temperature Precipitation Wind Pressure Humidity
    00:00 +4°C° 0 mm 6 mps 732 mmHg 93%
    01:00 +4°C° 0 mm 6 mps 731 mmHg 93%
    02:00 +3°C° 0 mm 6 mps 731 mmHg 93%
    03:00 +3°C° 0 mm 6 mps 730 mmHg 93%
    04:00 +3°C° 0 mm 5 mps 730 mmHg 94%
    05:00 +5°C° 0 mm 5 mps 729 mmHg 94%
    06:00 +5°C° 0 mm 4 mps 729 mmHg 94%
    07:00 +5°C° 0.1 mm 4 mps 728 mmHg 94%
    08:00 +6°C° 0.1 mm 5 mps 728 mmHg 93%
    09:00 +6°C° 0.1 mm 5 mps 727 mmHg 93%
    10:00 +5°C° 0 mm 6 mps 726 mmHg 89%
    11:00 +6°C° 0 mm 7 mps 725 mmHg 85%
    12:00 +6°C° 0 mm 8 mps 724 mmHg 81%
    13:00 +6°C° 0.4 mm 8 mps 723 mmHg 83%
    14:00 +6°C° 0.4 mm 9 mps 721 mmHg 86%
    15:00 +5°C° 0.4 mm 9 mps 720 mmHg 89%
    16:00 +4°C° 0.6 mm 8 mps 718 mmHg 88%
    17:00 +3°C° 0.6 mm 7 mps 717 mmHg 86%
    18:00 +2°C° 0.6 mm 7 mps 716 mmHg 85%
    19:00 +2°C° 0 mm 7 mps 715 mmHg 85%
    20:00 +2°C° 0 mm 7 mps 714 mmHg 85%
    21:00 +2°C° 0 mm 7 mps 713 mmHg 85%
    22:00 +2°C° 0.2 mm 7 mps 712 mmHg 86%
    23:00 +3°C° 0.2 mm 7 mps 711 mmHg 86%

    27 January, Sunday

    Time Temperature Precipitation Wind Pressure Humidity
    00:00 +3°C° 0.2 mm 7 mps 710 mmHg 86%
    01:00 +3°C° 0.4 mm 7 mps 709 mmHg 87%
    02:00 +3°C° 0.4 mm 6 mps 708 mmHg 88%
    03:00 +3°C° 0.4 mm 6 mps 707 mmHg 89%
    04:00 +2°C° 0.2 mm 6 mps 707 mmHg 88%
    05:00 +2°C° 0.2 mm 7 mps 707 mmHg 87%
    06:00 +1°C° 0.2 mm 8 mps 707 mmHg 86%
    07:00 +2°C° 0 mm 7 mps 708 mmHg 87%
    08:00 +2°C° 0 mm 7 mps 709 mmHg 87%
    09:00 +2°C° 0 mm 6 mps 710 mmHg 88%
    10:00 +2°C° 0.3 mm 7 mps 711 mmHg 86%
    11:00 +1°C° 0.3 mm 9 mps 711 mmHg 84%
    12:00 +1°C° 0.3 mm 10 mps 712 mmHg 82%
    13:00 +1°C° 0.3 mm 10 mps 713 mmHg 82%
    14:00 +1°C° 0.3 mm 11 mps 714 mmHg 81%
    15:00 +1°C° 0.3 mm 11 mps 715 mmHg 81%
    16:00 -1°C° 0.2 mm 11 mps 716 mmHg 80%
    17:00 -1°C° 0.2 mm 11 mps 717 mmHg 80%
    18:00 -1°C° 0.2 mm 11 mps 718 mmHg 79%
    19:00 -2°C° 0 mm 11 mps 719 mmHg 78%
    20:00 -2°C° 0 mm 10 mps 721 mmHg 76%
    21:00 -3°C° 0 mm 9 mps 722 mmHg 75%
    22:00 -2°C° 0 mm 8 mps 723 mmHg 77%
    23:00 -3°C° 0 mm 7 mps 723 mmHg 78%

    28 January, Monday

    Time Temperature Precipitation Wind Pressure Humidity
    00:00 -3°C° 0 mm 6 mps 724 mmHg 79%
    01:00 -4°C° 0 mm 6 mps 725 mmHg 80%
    02:00 -4°C° 0 mm 6 mps 725 mmHg 80%
    03:00 -4°C° 0 mm 5 mps 726 mmHg 80%
    04:00 -4°C° 0 mm 5 mps 726 mmHg 81%
    05:00 -3°C° 0 mm 4 mps 726 mmHg 82%
    06:00 -4°C° 0 mm 4 mps 727 mmHg 84%
    07:00 -3°C° 0 mm 4 mps 727 mmHg 83%
    08:00 -3°C° 0 mm 4 mps 728 mmHg 82%
    09:00 -3°C° 0 mm 4 mps 728 mmHg 82%
    10:00 -1°C° 0 mm 4 mps 728 mmHg 77%
    11:00 0°C° 0 mm 5 mps 728 mmHg 72%
    12:00 +1°C° 0 mm 5 mps 729 mmHg 67%
    13:00 +1°C° 0 mm 5 mps 728 mmHg 68%
    14:00 +1°C° 0 mm 5 mps 728 mmHg 70%
    15:00 +1°C° 0 mm 5 mps 727 mmHg 71%
    16:00 +1°C° 0.2 mm 5 mps 727 mmHg 77%
    17:00 +1°C° 0.2 mm 5 mps 727 mmHg 82%
    18:00 +1°C° 0.2 mm 5 mps 727 mmHg 88%
    19:00 0°C° 0 mm 5 mps 727 mmHg 86%
    20:00 -1°C° 0 mm 5 mps 727 mmHg 84%
    21:00 -1°C° 0 mm 5 mps 727 mmHg 82%
    22:00 -1°C° 0 mm 5 mps 727 mmHg 83%
    23:00 -2°C° 0 mm 5 mps 727 mmHg 83%

    29 January, Tuesday

    Time Temperature Precipitation Wind Pressure Humidity
    00:00 -2°C° 0 mm 5 mps 727 mmHg 83%
    01:00 -2°C° 0 mm 5 mps 727 mmHg 85%
    02:00 -2°C° 0 mm 5 mps 727 mmHg 86%
    03:00 -2°C° 0 mm 5 mps 726 mmHg 87%
    04:00 -2°C° 0 mm 5 mps 726 mmHg 86%
    05:00 -2°C° 0 mm 4 mps 726 mmHg 85%
    06:00 -3°C° 0 mm 4 mps 725 mmHg 84%
    07:00 -2°C° 0 mm 4 mps 725 mmHg 83%
    08:00 -2°C° 0 mm 4 mps 725 mmHg 82%
    09:00 -2°C° 0 mm 4 mps 725 mmHg 81%
    10:00 -2°C° 0.2 mm 6 mps 725 mmHg 78%
    11:00 -1°C° 0.2 mm 7 mps 724 mmHg 75%
    12:00 0°C° 0.2 mm 9 mps 724 mmHg 72%
    13:00 -1°C° 0.2 mm 8 mps 724 mmHg 73%
    14:00 -1°C° 0.2 mm 8 mps 723 mmHg 74%
    15:00 -1°C° 0.2 mm 7 mps 723 mmHg 76%
    16:00 -2°C° 0 mm 6 mps 722 mmHg 79%
    17:00 -2°C° 0 mm 5 mps 722 mmHg 81%
    18:00 -3°C° 0 mm 4 mps 722 mmHg 84%
    19:00 -2°C° 0 mm 3 mps 721 mmHg 85%
    20:00 -2°C° 0 mm 2 mps 720 mmHg 86%
    21:00 -2°C° 0 mm 2 mps 720 mmHg 86%
    22:00 -2°C° 0.3 mm 2 mps 718 mmHg 88%
    23:00 -2°C° 0.3 mm 2 mps 716 mmHg 90%
    Show more